Terminal Aerodrome Forecast
Issued by NWS

Home | Current Version | Previous Version | Text Only | Print | Product List | Glossary On
Versions: 1 2 3 4 5 6 7 8 9 10 11 12 13 14 15 16 17 18 19 20 21 22 23 24 25 26 27 28 29 30 31 32 33 34 35 36 37 38 39 40 41 42 43 44 45 46 47 48 49 50
000
FTUS45 KGJT 241736
TAFASE
TAF
KASE 241736Z 2418/2518 01003KT P6SM VCSH OVC060
     FM242100 34010KT P6SM -SHRA VCTS SCT035 OVC050CB
     FM250100 17003KT P6SM VCSH SCT035 OVC060
     FM251200 VRB03KT P6SM -SHRA SCT020 OVC040
     FM251600 VRB03KT P6SM VCSH SCT030 BKN070=

USA.gov is the U.S. government's official web portal to all federal, state and local government web resources and services.